Weather History for GMMZ - February, 2013

Change the Weather History Date:

Saturday, February 23, 2013

  Actual Average Record
Temperature  
Mean Temperature 56 °F -  
Max Temperature 61 °F 71 °F - ()
Min Temperature 46 °F 44 °F - ()
Degree Days  
Heating Degree Days 10    
Growing Degree Days 6 (Base 50)    
Moisture  
Dew Point 24 °F    
Average Humidity 30    
Maximum Humidity 50    
Minimum Humidity 7    
Precipitation  
Precipitation 0.00 in 0.01 in - ()
Sea Level Pressure  
Sea Level Pressure 29.99 in    
Wind  
Wind Speed 20 mph ()    
Max Wind Speed 36 mph    
Max Gust Speed 47 mph    
Visibility 7.1 miles    
Events      
T = Trace of Precipitation, MM = Missing Value Source: Averaged Metar Reports

Daily Weather History Graph

Daily Weather History Graph

Search for Another Location

Airport or City:

Trip Planner

Search our weather history database for the weather conditions in past years. The results will help you decide how hot, cold, wet, or windy it might be!

Date:

Astronomy

Feb. 23, 2013 Rise Set
Actual Time 7:00 AM WET 6:21 PM WET
Civil Twilight 6:36 AM WET 6:46 PM WET
Nautical Twilight 6:08 AM WET 7:14 PM WET
Astronomical Twilight 5:40 AM WET 7:42 PM WET
Moon 4:23 PM WET (2/23) 5:08 AM WET (2/23)
Length of Visible Light 12h 09m
Length of Day
11h 21m
Waxing Gibbous, 94% of the Moon is Illuminated
Feb 23
Waxing Gibbous
Feb 25
Full
Mar 4
Last Quarter
Mar 11
New
Mar 19
First Quarter

Hourly Weather History & Observations

Time (WET) Temp. Windchill Dew Point Humidity Pressure Visibility Wind Dir Wind Speed Gust Speed Precip Events Conditions
12:00 AM 54 °F - 28 °F 24%  in 12 mi WNW 13.8 mph - -   Scattered Clouds
12:00 AM 53.6 °F - 28.4 °F 38% 29.98 in 6.2 mi WNW 13.8 mph - N/A   Partly Cloudy
1:00 AM 53.6 °F - 26.6 °F 35% 29.98 in 6.2 mi NW 21.9 mph - N/A   Partly Cloudy
2:00 AM 53.6 °F - 30.2 °F 41% 29.98 in 6.2 mi WNW 24.2 mph - N/A   Partly Cloudy
3:00 AM 53 °F - 33 °F 34%  in 12 mi WNW 16.1 mph - -   Scattered Clouds
3:00 AM 51.8 °F - 33.8 °F 50% 29.95 in 6.2 mi WNW 16.1 mph - N/A   Partly Cloudy
4:00 AM 53.6 °F - 33.8 °F 47% 29.95 in 6.2 mi WNW 19.6 mph - N/A   Partly Cloudy
5:00 AM 51.8 °F - 33.8 °F 50% 29.92 in 6.2 mi West 18.4 mph - N/A   Partly Cloudy
6:00 AM 51 °F - 32 °F 36%  in 12 mi WNW 15.0 mph - -   Scattered Clouds
6:00 AM 51.8 °F - 32.0 °F 47% 29.92 in 6.2 mi WNW 15.0 mph - N/A   Partly Cloudy
7:00 AM 51.8 °F - 30.2 °F 44% 29.95 in 6.2 mi WNW 18.4 mph 29.9 mph N/A   Partly Cloudy
8:00 AM 51.8 °F - 28.4 °F 41% 29.95 in 6.2 mi WNW 35.7 mph 47.2 mph N/A   Partly Cloudy
9:00 AM 54 °F - 25 °F 21%  in 6 mi WNW 34.5 mph - -   Scattered Clouds
9:00 AM 53.6 °F - 24.8 °F 33% 29.98 in 6.2 mi WNW 34.5 mph - N/A   Partly Cloudy
10:00 AM 55.4 °F - 21.2 °F 26% 29.98 in 6.2 mi WNW 31.1 mph - N/A   Partly Cloudy
11:00 AM 57.2 °F - 19.4 °F 23% 30.01 in 6.2 mi WNW 26.5 mph - N/A   Partly Cloudy
12:00 PM 58 °F - 18 °F 11%  in 6 mi West 27.6 mph - -   Scattered Clouds
12:00 PM 59.0 °F - 15.8 °F 19% 30.01 in 6.2 mi West 27.6 mph - N/A   Partly Cloudy
1:00 PM 59.0 °F - 12.2 °F 16% 30.01 in 6.2 mi West 34.5 mph - N/A   Partly Cloudy
2:00 PM 60.8 °F - 15.8 °F 17% 29.98 in 6.2 mi West 34.5 mph 47.2 mph N/A   Partly Cloudy
3:00 PM 61 °F - 14 °F 7%  in 6 mi WNW 33.4 mph - -   Scattered Clouds
3:00 PM 60.8 °F - 14.0 °F 16% 29.95 in 6.2 mi WNW 34.5 mph 46.0 mph N/A   Partly Cloudy
4:00 PM 60.8 °F - 17.6 °F 19% 29.98 in 6.2 mi West 32.2 mph - N/A   Partly Cloudy
5:00 PM 59.0 °F - 21.2 °F 23% 29.98 in 6.2 mi West 29.9 mph 41.4 mph N/A   Partly Cloudy
6:00 PM 55 °F - 22 °F 16%  in 12 mi West 25.3 mph - -  
6:00 PM 55.4 °F - 23.0 °F 29% 30.01 in 6.2 mi West 26.5 mph - N/A   Partly Cloudy
7:00 PM 53.6 °F - 23.0 °F 30% 30.01 in 6.2 mi West 24.2 mph - N/A   Partly Cloudy
8:00 PM 51.8 °F - 24.8 °F 35% 30.06 in 6.2 mi West 19.6 mph - N/A   Partly Cloudy
9:00 PM 51 °F - 26 °F 25%  in 12 mi West 17.3 mph - -   Scattered Clouds
9:00 PM 50.0 °F - 26.6 °F 40% 30.06 in 6.2 mi West 16.1 mph - N/A   Partly Cloudy
10:00 PM 50.0 °F - 24.8 °F 37% 30.06 in - WNW 12.7 mph - N/A   Clear
11:00 PM 46.4 °F 45.2 °F 23.0 °F 40% 30.06 in - Variable 3.5 mph - N/A   Clear